Total_Precipitation_Accumulation
1.18 0.88 1.30 1.39 1.20 1.04 1.06 1.09 1.03 0.92 0.95 0.88 0.69 0.63 0.65 0.63 0.53 0.43 0.35 0.29 0.28 0.28 0.31 0.36 0.37 0.40 0.36 0.32 0.34 0.43 0.46 0.40 0.36 0.37 0.48 0.55 0.57 0.64 0.71 0.82 1.10 1.37 0.99
1.00 0.84 1.33 1.50 1.32 1.13 1.04 1.06 1.11 1.01 1.06 0.96 0.82 0.71 0.69 0.62 0.52 0.41 0.32 0.25 0.25 0.27 0.29 0.32 0.37 0.38 0.36 0.39 0.42 0.48 0.44 0.35 0.30 0.36 0.58 0.76 0.70 0.64 0.63 0.70 1.09 1.27 0.94
0.82 0.76 1.04 1.46 1.40 1.22 1.11 1.08 1.14 1.10 1.14 1.06 0.99 0.86 0.74 0.64 0.55 0.44 0.35 0.33 0.33 0.30 0.30 0.32 0.43 0.44 0.40 0.46 0.48 0.48 0.46 0.34 0.31 0.44 0.85 1.51 1.13 0.67 0.60 0.71 0.95 0.83 0.82
0.76 0.72 0.83 1.22 1.22 1.12 1.04 1.08 1.16 1.13 1.21 1.15 0.97 0.80 0.65 0.62 0.62 0.52 0.47 0.53 0.39 0.31 0.31 0.35 0.46 0.48 0.45 0.47 0.50 0.47 0.47 0.45 0.49 0.60 1.07 1.52 1.53 0.93 0.81 0.97 0.96 0.84 0.89
0.78 0.74 1.00 1.30 1.26 1.18 1.08 1.18 1.28 1.25 1.27 1.11 0.84 0.67 0.61 0.63 0.68 0.69 0.69 0.66 0.44 0.35 0.32 0.35 0.44 0.49 0.46 0.45 0.44 0.41 0.42 0.51 0.68 0.84 1.15 1.44 1.70 1.18 0.93 1.01 0.99 0.90 1.00
0.78 0.76 0.97 1.28 1.24 1.20 1.15 1.23 1.30 1.34 1.32 1.21 0.91 0.72 0.68 0.75 0.75 0.73 0.79 0.66 0.55 0.47 0.40 0.41 0.46 0.50 0.44 0.43 0.44 0.42 0.48 0.57 0.67 0.96 1.24 1.51 1.60 1.15 0.90 0.95 0.99 1.09 1.10
0.76 0.70 0.75 1.04 1.10 1.10 1.15 1.31 1.36 1.39 1.40 1.31 1.07 0.89 0.78 0.76 0.77 0.78 0.83 0.70 0.65 0.56 0.53 0.55 0.55 0.53 0.49 0.48 0.45 0.44 0.47 0.51 0.58 0.83 1.07 1.52 1.38 0.99 0.85 0.91 0.95 1.03 1.09
0.93 0.80 0.70 0.86 0.98 1.03 1.09 1.20 1.28 1.31 1.28 1.24 1.07 0.92 0.85 0.81 0.77 0.85 0.91 0.80 0.73 0.64 0.58 0.59 0.60 0.59 0.56 0.53 0.49 0.49 0.49 0.43 0.44 0.65 0.89 1.26 1.24 1.06 0.89 0.94 1.07 1.04 1.07
1.11 1.01 0.84 0.79 0.85 1.01 1.14 1.17 1.15 1.12 1.13 1.10 1.00 0.94 0.87 0.83 0.76 0.78 0.82 0.77 0.75 0.76 0.71 0.65 0.62 0.62 0.58 0.56 0.54 0.54 0.52 0.44 0.48 0.61 0.68 1.08 1.12 1.06 0.93 0.97 1.12 1.19 1.19
1.30 1.12 0.91 0.78 0.78 0.80 0.86 1.02 1.13 1.14 1.13 1.11 0.98 0.89 0.83 0.78 0.69 0.71 0.67 0.64 0.70 0.81 0.87 0.79 0.70 0.66 0.62 0.57 0.55 0.57 0.55 0.42 0.46 0.57 0.72 0.84 0.99 1.06 0.98 0.88 0.88 0.93 1.01
1.10 1.00 1.01 0.96 0.90 0.90 0.84 0.90 1.09 1.18 1.19 1.07 0.98 0.92 0.83 0.64 0.56 0.61 0.58 0.69 0.78 0.92 0.97 0.94 0.86 0.75 0.66 0.57 0.55 0.57 0.47 0.36 0.49 0.57 0.72 0.73 0.95 1.07 1.00 0.86 0.79 0.73 0.81
0.80 0.80 0.84 0.89 0.95 0.97 0.87 1.06 1.30 1.18 1.04 0.84 0.87 0.79 0.76 0.72 0.69 0.57 0.60 0.77 0.91 0.95 0.93 0.96 0.98 0.85 0.67 0.49 0.51 0.50 0.34 0.32 0.40 0.44 0.52 0.70 0.93 1.03 1.01 0.91 0.79 0.69 0.73
0.69 0.68 0.66 0.71 0.79 0.87 1.00 1.21 1.52 1.56 1.33 1.15 0.97 0.90 0.86 0.76 0.68 0.63 0.62 0.68 0.75 0.78 0.69 0.74 0.78 0.64 0.54 0.52 0.55 0.43 0.34 0.35 0.35 0.40 0.53 0.74 0.95 1.05 0.99 0.94 0.90 0.80 0.74
0.54 0.59 0.50 0.46 0.60 0.70 0.80 0.92 1.22 1.28 1.21 1.08 0.91 0.84 0.90 0.85 0.75 0.71 0.69 0.73 0.73 0.72 0.78 0.79 0.83 0.75 0.60 0.53 0.54 0.55 0.47 0.40 0.42 0.53 0.64 0.70 0.94 1.09 1.06 1.01 0.97 0.88 0.82
0.57 0.60 0.55 0.47 0.48 0.52 0.56 0.63 0.76 0.92 1.03 1.03 0.99 0.83 0.82 0.81 0.76 0.78 0.73 0.78 0.70 0.68 0.75 0.82 0.81 0.83 0.74 0.62 0.57 0.57 0.64 0.56 0.51 0.56 0.70 0.79 1.01 1.20 1.28 1.19 1.05 0.97 0.96
0.52 0.64 0.63 0.53 0.49 0.50 0.48 0.47 0.48 0.61 0.76 0.92 0.94 0.83 0.85 0.86 0.81 0.86 0.83 0.83 0.79 0.73 0.76 0.91 0.85 0.89 0.87 0.80 0.63 0.60 0.63 0.59 0.54 0.57 0.67 0.90 0.98 1.01 1.25 1.42 1.34 1.20 1.08
0.45 0.50 0.57 0.55 0.57 0.60 0.59 0.59 0.49 0.52 0.59 0.73 0.85 0.84 0.90 0.85 0.77 0.82 0.85 0.82 0.81 0.82 0.82 0.87 0.89 0.94 0.84 0.78 0.70 0.65 0.61 0.56 0.50 0.57 0.59 0.67 0.65 0.70 0.91 1.21 1.41 1.35 1.25
0.47 0.50 0.55 0.56 0.63 0.69 0.74 0.75 0.69 0.74 0.76 0.77 0.92 0.89 0.84 0.87 0.84 0.84 0.90 0.91 0.95 0.99 0.96 0.96 0.99 1.01 0.95 0.92 0.87 0.81 0.64 0.63 0.57 0.60 0.59 0.58 0.62 0.57 0.67 0.80 1.02 1.17 1.31
0.43 0.44 0.48 0.56 0.61 0.64 0.72 0.85 0.98 1.02 1.02 0.98 1.01 0.97 0.87 0.85 0.91 1.03 1.07 1.12 1.09 1.10 1.12 1.09 1.10 1.03 1.02 1.00 0.91 0.87 0.76 0.72 0.69 0.60 0.68 0.68 0.68 0.63 0.64 0.58 0.63 0.70 0.91
0.34 0.36 0.41 0.49 0.65 0.79 0.87 0.92 1.08 1.13 1.21 1.30 1.35 1.22 1.09 1.10 1.22 1.37 1.46 1.40 1.39 1.37 1.35 1.31 1.39 1.28 1.10 1.07 1.00 0.92 0.79 0.71 0.77 0.72 0.74 0.75 0.79 0.76 0.71 0.60 0.54 0.47 0.55
0.22 0.28 0.34 0.40 0.55 0.69 0.79 0.91 1.10 1.28 1.46 1.62 1.74 1.63 1.49 1.45 1.61 1.72 1.65 1.73 1.77 1.63 1.62 1.66 1.73 1.67 1.41 1.26 1.32 1.19 0.91 0.69 0.75 0.75 0.73 0.78 0.85 0.97 1.00 0.86 0.70 0.61 0.53
0.14 0.17 0.23 0.31 0.42 0.55 0.70 0.93 1.16 1.45 1.54 1.63 1.78 1.82 1.76 1.69 1.84 1.88 1.95 2.02 2.05 2.04 2.00 1.88 1.96 2.04 1.79 1.56 1.64 1.90 1.48 1.08 0.75 0.63 0.72 0.75 0.85 1.10 1.17 1.02 0.81 0.70 0.62
0.10 0.11 0.18 0.29 0.44 0.66 0.88 1.19 1.49 1.73 1.81 1.86 1.81 1.88 1.97 2.02 2.08 2.10 2.16 2.22 2.22 2.06 2.05 2.14 2.24 2.55 2.34 2.00 1.82 2.04 1.82 1.49 1.20 0.79 0.73 0.80 0.89 1.07 1.19 1.22 1.10 0.99 0.88
0.12 0.16 0.26 0.42 0.62 0.90 1.23 1.58 1.81 2.04 2.14 1.99 1.97 2.01 2.03 1.98 2.01 2.12 2.14 2.13 2.10 2.03 2.09 2.15 2.19 2.55 2.72 2.41 2.10 1.77 1.55 1.51 1.54 1.23 0.90 0.86 0.94 0.97 1.07 1.15 1.12 1.19 1.15
0.25 0.32 0.48 0.72 1.01 1.29 1.52 1.69 1.91 2.04 2.06 2.04 2.00 2.00 1.93 1.91 1.87 1.91 1.93 2.01 2.04 2.08 2.14 2.29 2.39 2.61 2.63 2.62 2.44 2.26 2.04 1.74 1.39 1.41 1.34 1.09 1.04 0.96 1.05 1.19 1.24 1.32 1.31
0.42 0.55 0.73 0.91 1.19 1.36 1.47 1.60 1.79 1.93 1.97 2.00 1.98 1.99 1.98 1.95 1.85 1.79 1.76 1.82 1.94 2.11 2.17 2.25 2.38 2.60 2.70 2.77 2.70 2.44 2.34 2.16 1.86 1.73 1.47 1.33 1.30 1.12 1.10 1.13 1.18 1.29 1.40